Regional Weather Roundup
Issued by NWS Northern Indiana

Home | Current Version | Previous Version | Graphics & Text | Print | Product List | Glossary On
Versions: 1 2 3 4 5 6 7 8 9 10 11 12 13 14 15 16 17 18 19 20 21 22 23 24 25 26 27 28 29 30 31 32 33 34 35 36 37 38 39 40 41 42 43 44 45 46 47 48 49 50
000
ASUS43 KIWX 191810
RWRIWX

KIWX WEATHER ROUNDUP
NATIONAL WEATHER SERVICE NORTHERN INDIANA
100 PM EST FRI DEC 19 2014

NOTE: "FAIR" INDICATES FEW OR NO CLOUDS BELOW 12,000 FEET WITH NO
SIGNIFICANT WEATHER AND/OR OBSTRUCTIONS TO VISIBILITY.

* THESE STATIONS ARE NOT UNDER NWS QUALITY CONTROL. THEY ALSO MAY NOT
  REPORT WEATHER SUCH AS PRECIPITATION OR FOG.

INZ001>027-191900-
NORTHERN INDIANA

CITY           SKY/WX    TMP DP  RH WIND       PRES   REMARKS
GARY*          CLOUDY    34  19  55 VRB5      30.30  WCI  30
VALPARAISO     CLOUDY    31  24  75 W8        30.27F WCI  23
6HR MIN TEMP:  28; 6HR MAX TEMP:  31;

MICHIGAN CITY* CLOUDY    32  25  74 NW5       30.28F WCI  27
LAPORTE*       CLOUDY    32  27  83 CALM      30.27F
6HR MIN TEMP:  30; 6HR MAX TEMP:  33;

KNOX*          CLOUDY    31  24  72 W8        30.26F WCI  24
6HR MIN TEMP:   9; 6HR MAX TEMP:  81;

SOUTH BEND     CLOUDY    34  24  67 CALM      30.27F
6HR MIN TEMP:  28; 6HR MAX TEMP:  35;

ELKHART*       PTSUNNY   34  19  55 NW6       30.27F WCI  29
GOSHEN         SUNNY     33  20  58 N7        30.25F WCI  27
6HR MIN TEMP:  26; 6HR MAX TEMP:  33;

MONTICELLO*    CLOUDY    29  26  89 NW5       30.27F WCI  24
6HR MIN TEMP:  25; 6HR MAX TEMP:  29;

LOGANSPORT*    CLOUDY    30  25  80 NW3       30.27F HAZE
ROCHESTER*     CLOUDY    32  30  93 W3        30.26F FOG
WARSAW*        PTSUNNY   32  25  74 NW7       30.26F WCI  26
ANGOLA*        CLOUDY    28  16  59 CALM      30.24F
FORT WAYNE     PTSUNNY   32  23  69 W6        30.26F WCI  26
6HR MIN TEMP:  26; 6HR MAX TEMP:  33;

HUNTINGTON*    PTSUNNY   31  25  77 N3        30.25F
6HR MIN TEMP:  26; 6HR MAX TEMP:  32;

PERU/GRISSOM   CLOUDY    28  28 100 NW7       30.25F WCI  21
6HR MIN TEMP:  26; 6HR MAX TEMP:  28; 6HR PCP: TRACE;

MARION*        CLOUDY    28  25  89 NW3       30.26F FOG
6HR MIN TEMP:  22; 6HR MAX TEMP:  50;


$$
INZ028>050-191900-
CENTRAL INDIANA

CITY           SKY/WX    TMP DP  RH WIND       PRES   REMARKS
LAFAYETTE      CLOUDY    27  25  92 CALM      30.29F
6HR MIN TEMP:  21; 6HR MAX TEMP:  27;

KOKOMO*        CLOUDY    28  25  86 N5        30.26F WCI  23
6HR MIN TEMP:  27; 6HR MAX TEMP:  28;

MUNCIE*        CLOUDY    28  23  81 NW3       30.25F
6HR MIN TEMP:  26; 6HR MAX TEMP:  29;

INDIANAPOLIS   CLOUDY    27  22  81 SW3       30.27F
6HR MIN TEMP:  19; 6HR MAX TEMP:  27;


$$
MIZ043>046-050>051-056>058-064>065-071>073-077>080-191900-
SOUTHWEST LOWER MICHIGAN

CITY           SKY/WX    TMP DP  RH WIND       PRES   REMARKS
BATTLE CREEK   CLOUDY    30  21  69 CALM      30.25F
6HR MIN TEMP:  29; 6HR MAX TEMP:  30;

BENTON HARBOR  CLOUDY    32  24  72 NW5       30.27F WCI  27
6HR MIN TEMP:  26; 6HR MAX TEMP:  32;

COLDWATER*     CLOUDY    28  27  93 MISG      30.25S FOG
6HR MIN TEMP:  27; 6HR MAX TEMP:  29;

HILLSDALE*     CLOUDY    29  25  84 CALM      30.23F
6HR MIN TEMP:  28; 6HR MAX TEMP:  29;

HOLLAND        MOSUNNY   32  21  64 CALM      30.27F
6HR MIN TEMP:  18; 6HR MAX TEMP:  32;

GRAND RAPIDS   MOSUNNY   29  19  66 SW5       30.26F WCI  24
6HR MIN TEMP:  26; 6HR MAX TEMP:  30;

KALAMAZOO      MOSUNNY   31  20  63 E5        30.25F WCI  26
6HR MIN TEMP:  24; 6HR MAX TEMP:  31;

STURGIS*       CLOUDY    30  23  74 CALM      30.24F
THREE RIVERS*  FAIR      33  20  59 CALM      30.26F
6HR MIN TEMP:  22; 6HR MAX TEMP:  33;


$$
OHZ001>008-015>018-024>025-191900-
NORTHWEST OHIO

CITY           SKY/WX    TMP DP  RH WIND       PRES   REMARKS
WAUSEON*       CLOUDY    30  27  86 CALM      30.25F
DEFIANCE       CLOUDY    31  23  72 CALM      30.27S
6HR MIN TEMP:  29; 6HR MAX TEMP:  31;

FINDLAY        CLOUDY    31  25  78 W7        30.25F WCI  24
6HR MIN TEMP:  29; 6HR MAX TEMP:  31;

TOLEDO EXPRESS CLOUDY    30  25  81 CALM      30.25F
6HR MIN TEMP:  29; 6HR MAX TEMP:  30;

TOLEDO METCALF CLOUDY    30  24  78 E3        30.27F
6HR MIN TEMP:  30; 6HR MAX TEMP:  31; 6HR PCP: TRACE;

LIMA           CLOUDY    31  24  75 W5        30.24F HAZE    WCI  26
6HR MIN TEMP:  30; 6HR MAX TEMP:  31;


$$
AND FOR LAKE MICHIGAN COASTAL AND OPEN LAKE BUOY OBSERVATIONS

STATION/POSITION TEMP    WIND        PRES    VSBY  WAVE
                 AIR SEA DIR/SP/G                  HT/PER
                 (F)     (DEG/KT/KT) (MB)    (MI)  (FT/S)
CALUMET HARBOR    31     270/  3/  5 1024.5F
SAINT JOSEPH      32     340/  2/  6 1025.7F

$$
&&



USA.gov is the U.S. government's official web portal to all federal, state and local government web resources and services.